Location: St Paul
(33.4390°N, 83.7350°W)
Time: 11:51:04
(UTC-05:00)

SL-14 R/B - Pass Details

Date: 06 October 2017
Orbit: 519 x 555 km, 82.4° (Epoch: 13 December)

Event Time Altitude Azimuth Distance (km) Brightness Sun altitude
Rises 20:30:31 0° 357° (N) 2,650 6.9 -17.1°
Reaches altitude 10° 20:32:41 10° 1° (N) 1,756 5.9 -17.6°
Maximum altitude 20:36:29 60° 83° (E) 596 3.1 -18.4°
Enters shadow 20:38:02 32° 150° (SSE) 898 4.1 -18.7°
